�������l�o���
Date,Time,MP-1(��Sv/h),MP-2(��Sv/h),MP-3(��Sv/h),MP-4(��Sv/h),MP-5(��Sv/h),MP-6(��Sv/h),MP-7(��Sv/h),MP-8(��Sv/h),����,����(m/s),���J
2023/12/19,00:00,0.507,0.768,0.479,0.964,0.691,0.310,0.556,0.522,-,CALM,��
2023/12/19,00:10,0.508,0.767,0.479,0.964,0.689,0.309,0.556,0.521,�k�k��,0.9,��
2023/12/19,00:20,0.506,0.766,0.478,0.964,0.691,0.309,0.555,0.522,���k��,1.5,��
2023/12/19,00:30,0.507,0.765,0.477,0.963,0.691,0.310,0.555,0.522,���k��,2.5,��
2023/12/19,00:40,0.507,0.765,0.478,0.963,0.693,0.309,0.555,0.521,���k��,3.5,��
2023/12/19,00:50,0.506,0.767,0.479,0.963,0.690,0.308,0.556,0.522,���k��,3.6,��
2023/12/19,01:00,0.507,0.767,0.477,0.962,0.691,0.310,0.555,0.522,��,3.1,��
2023/12/19,01:10,0.506,0.767,0.478,0.963,0.692,0.309,0.555,0.521,��,3.2,��
2023/12/19,01:20,0.506,0.768,0.477,0.964,0.691,0.309,0.557,0.521,��,3.2,��
2023/12/19,01:30,0.508,0.767,0.477,0.962,0.692,0.309,0.556,0.522,���k��,4.3,��
2023/12/19,01:40,0.507,0.769,0.477,0.963,0.690,0.308,0.553,0.522,���k��,4.2,��
2023/12/19,01:50,0.506,0.766,0.477,0.963,0.692,0.309,0.556,0.522,���k��,5.2,��
2023/12/19,02:00,0.507,0.767,0.479,0.962,0.690,0.308,0.556,0.521,�k��,4.8,��
2023/12/19,02:10,0.505,0.767,0.478,0.964,0.691,0.310,0.555,0.521,�k��,4.9,��
2023/12/19,02:20,0.507,0.768,0.478,0.962,0.690,0.309,0.557,0.522,�k��,7.4,��
2023/12/19,02:30,0.506,0.768,0.478,0.966,0.691,0.310,0.556,0.522,�k��,10.2,��
2023/12/19,02:40,0.506,0.768,0.478,0.964,0.688,0.309,0.557,0.523,�k��,11.8,��
2023/12/19,02:50,0.508,0.767,0.479,0.963,0.691,0.309,0.556,0.521,�k��,12.8,��
2023/12/19,03:00,0.506,0.768,0.477,0.962,0.691,0.308,0.557,0.524,�k��,11.1,��
2023/12/19,03:10,0.507,0.766,0.479,0.966,0.691,0.308,0.557,0.523,�k��,7.1,��
2023/12/19,03:20,0.508,0.766,0.477,0.967,0.691,0.308,0.558,0.523,�k��,8.2,��
2023/12/19,03:30,0.506,0.767,0.478,0.964,0.691,0.309,0.556,0.523,�k��,6.9,��
2023/12/19,03:40,0.507,0.768,0.479,0.965,0.691,0.308,0.557,0.523,�k��,6.8,��
2023/12/19,03:50,0.507,0.768,0.478,0.965,0.692,0.308,0.558,0.523,�k��,5.0,��
2023/12/19,04:00,0.507,0.768,0.478,0.963,0.691,0.307,0.558,0.523,�k��,5.2,��
2023/12/19,04:10,0.507,0.767,0.478,0.964,0.692,0.309,0.556,0.523,�k��,2.0,��
2023/12/19,04:20,0.506,0.767,0.478,0.963,0.691,0.311,0.559,0.523,���k��,1.4,��
2023/12/19,04:30,0.506,0.770,0.479,0.964,0.693,0.310,0.559,0.522,�k��,2.8,��
2023/12/19,04:40,0.506,0.768,0.479,0.967,0.692,0.310,0.556,0.523,�k��,6.3,��
2023/12/19,04:50,0.508,0.769,0.477,0.965,0.692,0.311,0.558,0.522,�k��,5.6,��
2023/12/19,05:00,0.508,0.767,0.478,0.965,0.690,0.309,0.557,0.524,�k��,4.8,��
2023/12/19,05:10,0.506,0.769,0.480,0.965,0.689,0.309,0.559,0.523,�k�k��,2.9,��
2023/12/19,05:20,0.506,0.768,0.478,0.966,0.692,0.308,0.557,0.523,�k,1.7,��
2023/12/19,05:30,0.507,0.768,0.479,0.964,0.691,0.310,0.557,0.523,�k�k��,2.0,��
2023/12/19,05:40,0.506,0.766,0.480,0.965,0.691,0.311,0.556,0.523,�k,2.3,��
2023/12/19,05:50,0.507,0.767,0.478,0.962,0.691,0.308,0.557,0.522,�k,1.7,��
2023/12/19,06:00,0.507,0.770,0.478,0.964,0.690,0.309,0.557,0.523,�k,2.6,��
2023/12/19,06:10,0.507,0.768,0.480,0.965,0.690,0.310,0.556,0.522,�k,2.0,��
2023/12/19,06:20,0.507,0.768,0.480,0.966,0.691,0.309,0.557,0.523,�k�k��,3.3,��
2023/12/19,06:30,0.506,0.765,0.479,0.965,0.690,0.309,0.556,0.522,�k�k��,2.5,��
2023/12/19,06:40,0.507,0.767,0.478,0.964,0.691,0.311,0.558,0.523,�k�k��,1.9,��
2023/12/19,06:50,0.506,0.767,0.478,0.965,0.692,0.308,0.557,0.521,�k��,1.1,��
2023/12/19,07:00,0.508,0.767,0.480,0.964,0.691,0.310,0.557,0.522,��쐼,0.9,��
2023/12/19,07:10,0.505,0.767,0.480,0.964,0.690,0.308,0.558,0.523,�쐼,1.5,��
2023/12/19,07:20,0.507,0.766,0.477,0.964,0.693,0.309,0.558,0.521,�쐼,1.1,��
2023/12/19,07:30,0.506,0.767,0.480,0.963,0.691,0.309,0.558,0.523,���쐼,2.0,��
2023/12/19,07:40,0.508,0.767,0.479,0.967,0.689,0.309,0.557,0.522,���쐼,2.0,��
2023/12/19,07:50,0.507,0.768,0.479,0.963,0.690,0.309,0.557,0.522,�쐼,2.2,��
2023/12/19,08:00,0.508,0.769,0.479,0.964,0.691,0.309,0.558,0.522,���쐼,2.3,��
2023/12/19,08:10,0.508,0.766,0.479,0.965,0.691,0.309,0.557,0.521,��,2.0,��
2023/12/19,08:20,0.507,0.767,0.479,0.963,0.691,0.309,0.557,0.522,��,4.1,��
2023/12/19,08:30,0.508,0.768,0.480,0.965,0.691,0.309,0.558,0.521,��,2.3,��
2023/12/19,08:40,0.508,0.768,0.479,0.965,0.693,0.309,0.557,0.522,��,2.3,��
2023/12/19,08:50,0.508,0.767,0.479,0.964,0.690,0.309,0.557,0.524,���k��,1.7,��
2023/12/19,09:00,0.509,0.767,0.479,0.964,0.691,0.310,0.556,0.523,���k��,2.0,��
2023/12/19,09:10,0.507,0.769,0.479,0.965,0.692,0.310,0.557,0.521,���k��,1.5,��
2023/12/19,09:20,0.507,0.771,0.479,0.964,0.692,0.310,0.556,0.521,�k��,1.9,��
2023/12/19,09:30,0.508,0.769,0.480,0.963,0.691,0.311,0.558,0.522,�k,1.5,��
2023/12/19,09:40,0.507,0.767,0.479,0.966,0.692,0.309,0.558,0.523,�k,2.0,��
2023/12/19,09:50,0.509,0.767,0.480,0.965,0.690,0.310,0.557,0.522,�k�k��,2.3,��
2023/12/19,10:00,0.507,0.769,0.480,0.965,0.691,0.309,0.556,0.522,�k�k��,3.1,��
2023/12/19,10:10,0.508,0.770,0.479,0.963,0.693,0.310,0.555,0.523,�k�k��,2.8,��
2023/12/19,10:20,0.509,0.768,0.479,0.965,0.693,0.311,0.556,0.524,�k�k��,3.2,��
2023/12/19,10:30,0.507,0.769,0.479,0.968,0.691,0.310,0.557,0.523,�k�k��,3.4,��
2023/12/19,10:40,0.509,0.768,0.481,0.968,0.693,0.312,0.557,0.523,�k�k��,3.6,��
2023/12/19,10:50,0.508,0.768,0.480,0.965,0.693,0.311,0.556,0.524,�k��,2.8,��
2023/12/19,11:00,0.509,0.768,0.479,0.965,0.693,0.310,0.556,0.523,�k�k��,3.9,��
2023/12/19,11:10,0.508,0.767,0.481,0.966,0.694,0.306,0.557,0.524,�k�k��,3.8,��
2023/12/19,11:20,0.508,0.768,0.482,0.966,0.694,0.305,0.557,0.524,�k�k��,4.4,��
2023/12/19,11:30,0.508,0.767,0.480,0.967,0.694,0.307,0.556,0.524,�k,3.5,��
2023/12/19,11:40,0.509,0.766,0.481,0.965,0.694,0.311,0.557,0.523,�k�k��,4.4,��
2023/12/19,11:50,0.509,0.767,0.481,0.967,0.694,0.311,0.558,0.523,�k��,3.5,��
2023/12/19,12:00,0.509,0.767,0.482,0.969,0.694,0.311,0.558,0.524,�k�k��,3.2,��
2023/12/19,12:10,0.509,0.768,0.482,0.965,0.695,0.310,0.557,0.524,�k�k��,3.1,��
2023/12/19,12:20,0.508,0.768,0.482,0.967,0.694,0.311,0.556,0.522,�k�k��,2.9,��
2023/12/19,12:30,0.510,0.771,0.479,0.966,0.695,0.310,0.557,0.524,�k��,1.7,��
2023/12/19,12:40,0.509,0.772,0.481,0.967,0.694,0.311,0.557,0.524,���k��,1.7,��
2023/12/19,12:50,0.508,0.771,0.483,0.967,0.695,0.311,0.558,0.524,�k�k��,1.7,��
2023/12/19,13:00,0.511,0.771,0.482,0.966,0.695,0.311,0.558,0.524,�k,3.2,��
2023/12/19,13:10,0.510,0.771,0.482,0.968,0.694,0.310,0.559,0.523,�k�k��,2.6,��
2023/12/19,13:20,0.510,0.772,0.483,0.966,0.694,0.311,0.558,0.524,�k,1.2,��
2023/12/19,13:30,0.510,0.770,0.482,0.965,0.695,0.312,0.557,0.524,�k�k��,2.0,��
2023/12/19,13:40,0.509,0.772,0.481,0.968,0.694,0.310,0.557,0.523,�k�k��,2.5,��
2023/12/19,13:50,0.510,0.771,0.481,0.966,0.695,0.311,0.556,0.524,�k��,1.8,��
2023/12/19,14:00,0.509,0.770,0.482,0.966,0.694,0.310,0.557,0.524,�k��,2.0,��
2023/12/19,14:10,0.509,0.771,0.481,0.966,0.693,0.311,0.558,0.523,�k�k��,2.3,��
2023/12/19,14:20,0.509,0.769,0.482,0.967,0.695,0.312,0.557,0.525,���k��,2.0,��
2023/12/19,14:30,0.509,0.769,0.482,0.967,0.693,0.310,0.557,0.524,��,1.9,��
2023/12/19,14:40,0.509,0.774,0.482,0.966,0.694,0.311,0.557,0.523,��,1.9,��
2023/12/19,14:50,0.509,0.770,0.481,0.966,0.695,0.310,0.559,0.523,�k��,2.0,��
2023/12/19,15:00,0.509,0.771,0.484,0.967,0.696,0.312,0.559,0.523,���k��,1.2,��
2023/12/19,15:10,0.510,0.770,0.481,0.966,0.694,0.311,0.558,0.524,�k��,1.2,��
2023/12/19,15:20,0.511,0.769,0.482,0.965,0.694,0.310,0.558,0.523,�k�k��,1.4,��
2023/12/19,15:30,0.510,0.770,0.481,0.966,0.695,0.311,0.559,0.523,-,CALM,��
2023/12/19,15:40,0.509,0.771,0.483,0.966,0.693,0.310,0.559,0.523,��쓌,1.1,��
2023/12/19,15:50,0.510,0.771,0.481,0.966,0.695,0.310,0.557,0.523,-,CALM,��
2023/12/19,16:00,0.509,0.772,0.482,0.967,0.695,0.311,0.560,0.523,�k�k��,0.6,��
2023/12/19,16:10,0.511,0.771,0.483,0.967,0.695,0.311,0.559,0.522,�k�k��,0.9,��
2023/12/19,16:20,0.507,0.772,0.482,0.966,0.695,0.311,0.558,0.523,�k��,1.2,��
2023/12/19,16:30,0.510,0.769,0.481,0.966,0.694,0.312,0.558,0.522,�k��,1.7,��
2023/12/19,16:40,0.509,0.771,0.482,0.965,0.693,0.310,0.558,0.523,�k��,2.5,��
2023/12/19,16:50,0.508,0.770,0.482,0.970,0.694,0.310,0.557,0.523,�k��,3.0,��
2023/12/19,17:00,0.509,0.771,0.481,0.966,0.694,0.310,0.558,0.522,�k��,4.0,��
2023/12/19,17:10,0.509,0.771,0.479,0.966,0.692,0.311,0.558,0.525,�k��,4.6,��
2023/12/19,17:20,0.509,0.770,0.480,0.969,0.693,0.312,0.557,0.523,�k��,4.9,��
2023/12/19,17:30,0.509,0.770,0.481,0.966,0.694,0.310,0.558,0.521,�k��,4.4,��
2023/12/19,17:40,0.509,0.772,0.481,0.966,0.695,0.311,0.557,0.523,�k��,4.1,��
2023/12/19,17:50,0.511,0.771,0.482,0.968,0.695,0.310,0.558,0.525,�k��,3.3,��
2023/12/19,18:00,0.509,0.771,0.480,0.967,0.692,0.311,0.559,0.523,�k��,3.4,��
2023/12/19,18:10,0.509,0.772,0.481,0.966,0.693,0.311,0.558,0.524,�k��,3.5,��
2023/12/19,18:20,0.508,0.769,0.480,0.967,0.694,0.311,0.558,0.523,�k��,3.5,��
2023/12/19,18:30,0.509,0.772,0.482,0.967,0.694,0.311,0.559,0.522,�k��,3.3,��
2023/12/19,18:40,0.509,0.769,0.481,0.967,0.693,0.311,0.558,0.523,�k��,3.5,��
2023/12/19,18:50,0.509,0.771,0.481,0.965,0.693,0.311,0.558,0.524,�k��,3.6,��
2023/12/19,19:00,0.510,0.773,0.481,0.967,0.694,0.312,0.559,0.522,�k��,3.6,��
2023/12/19,19:10,0.509,0.771,0.482,0.968,0.694,0.311,0.558,0.523,���k��,3.2,��
2023/12/19,19:20,0.508,0.771,0.482,0.968,0.695,0.312,0.558,0.524,���k��,2.8,��
2023/12/19,19:30,0.508,0.772,0.481,0.967,0.695,0.311,0.558,0.523,���k��,2.3,��
2023/12/19,19:40,0.506,0.772,0.482,0.966,0.695,0.311,0.559,0.523,���k��,1.5,��
2023/12/19,19:50,0.508,0.771,0.481,0.968,0.697,0.311,0.558,0.523,���k��,1.2,��
2023/12/19,20:00,0.507,0.772,0.482,0.968,0.694,0.311,0.558,0.522,�k��,0.9,��
2023/12/19,20:10,0.511,0.771,0.481,0.968,0.695,0.311,0.558,0.523,���k��,1.4,��
2023/12/19,20:20,0.509,0.771,0.482,0.966,0.695,0.311,0.559,0.523,���k��,2.0,��
2023/12/19,20:30,0.509,0.771,0.482,0.967,0.692,0.312,0.558,0.523,���k��,2.3,��
2023/12/19,20:40,0.509,0.770,0.481,0.966,0.694,0.310,0.557,0.522,��,2.2,��
2023/12/19,20:50,0.508,0.771,0.482,0.968,0.695,0.311,0.559,0.524,��,2.5,��
2023/12/19,21:00,0.510,0.770,0.482,0.968,0.695,0.311,0.558,0.523,��,2.2,��
2023/12/19,21:10,0.508,0.771,0.481,0.968,0.696,0.312,0.557,0.523,��,1.5,��
2023/12/19,21:20,0.509,0.771,0.481,0.967,0.696,0.311,0.558,0.526,��,1.7,��
2023/12/19,21:30,0.508,0.772,0.482,0.967,0.695,0.311,0.557,0.526,���k��,1.7,��
2023/12/19,21:40,0.509,0.771,0.482,0.967,0.695,0.311,0.559,0.524,��,0.9,��
2023/12/19,21:50,0.508,0.772,0.480,0.969,0.694,0.310,0.558,0.524,��,2.0,��
2023/12/19,22:00,0.508,0.771,0.482,0.970,0.694,0.312,0.558,0.524,��,1.2,��
2023/12/19,22:10,0.510,0.772,0.482,0.968,0.695,0.311,0.560,0.523,���k��,0.9,��
2023/12/19,22:20,0.508,0.771,0.481,0.969,0.695,0.313,0.557,0.523,���k��,1.2,��
2023/12/19,22:30,0.509,0.771,0.481,0.968,0.695,0.311,0.558,0.524,���k��,1.2,��
2023/12/19,22:40,0.509,0.771,0.482,0.968,0.694,0.311,0.559,0.525,���k��,1.7,��
2023/12/19,22:50,0.510,0.772,0.483,0.968,0.694,0.310,0.559,0.523,���k��,1.2,��
2023/12/19,23:00,0.509,0.771,0.482,0.968,0.693,0.312,0.558,0.522,���k��,0.9,��
2023/12/19,23:10,0.510,0.770,0.482,0.968,0.695,0.312,0.560,0.525,-,CALM,��
2023/12/19,23:20,0.509,0.771,0.482,0.969,0.694,0.311,0.558,0.524,�쐼,0.6,��
2023/12/19,23:30,0.510,0.771,0.483,0.966,0.695,0.312,0.558,0.524,���쐼,0.6,��
2023/12/19,23:40,0.510,0.772,0.481,0.969,0.695,0.313,0.560,0.524,�쐼,1.1,��
2023/12/19,23:50,0.508,0.770,0.483,0.966,0.696,0.313,0.558,0.524,��,1.1,��
